Location: Abbey Hill
(34.0751°N, 84.0688°W)
Time: 11:46:05
(UTC+00:00)

ISS - Pass Details

Date: 02 October 2021
Orbit: 417 x 423 km, 51.6° (Epoch: 26 October)

Event Time Altitude Azimuth Distance (km) Brightness Sun altitude
Rises 00:30:48 0° 330° (NNW) 2,363 0.6 -15.5°
Reaches altitude 10° 00:34:24 10° 11° (N) 1,499 -1.0 -16.2°
Maximum altitude 00:35:17 11° 26° (NNE) 1,453 -1.2 -16.4°
Enters shadow 00:35:18 11° 26° (NNE) 1,453 -1.2 -16.4°
